TimeCDT,TemperatureF,Dew PointF,Humidity,Sea Level PressureIn,VisibilityMPH,Wind Direction,Wind SpeedMPH,Gust SpeedMPH,PrecipitationIn,Events,Conditions,WindDirDegrees,DateUTC
12:53 AM,75.0,61.0,62,30.00,10.0,ENE,5.8,-,N/A,,Clear,60,2013-08-16 05:53:00
1:53 AM,73.9,60.1,62,29.98,10.0,ENE,4.6,-,N/A,,Clear,60,2013-08-16 06:53:00
2:53 AM,70.0,62.1,76,29.96,10.0,East,4.6,-,N/A,,Clear,80,2013-08-16 07:53:00
3:53 AM,70.0,63.0,78,29.96,10.0,NE,3.5,-,N/A,,Clear,50,2013-08-16 08:53:00
4:53 AM,70.0,64.0,81,29.97,10.0,Calm,Calm,-,N/A,,Clear,0,2013-08-16 09:53:00
5:53 AM,69.1,64.0,84,29.99,10.0,NNE,3.5,-,N/A,,Partly Cloudy,30,2013-08-16 10:53:00
6:53 AM,69.1,62.1,78,30.00,10.0,NE,3.5,-,N/A,,Scattered Clouds,40,2013-08-16 11:53:00
7:53 AM,71.1,62.1,73,30.00,10.0,ENE,3.5,-,N/A,,Clear,60,2013-08-16 12:53:00
8:53 AM,73.9,64.0,71,30.01,10.0,East,4.6,-,N/A,,Clear,90,2013-08-16 13:53:00
9:53 AM,79.0,66.0,64,30.00,10.0,Variable,4.6,-,N/A,,Clear,0,2013-08-16 14:53:00
10:53 AM,82.0,66.9,60,30.00,10.0,East,3.5,-,N/A,,Clear,90,2013-08-16 15:53:00
11:53 AM,84.0,68.0,58,29.99,10.0,Calm,Calm,-,N/A,,Clear,0,2013-08-16 16:53:00
12:53 PM,89.1,68.0,50,29.98,10.0,Calm,Calm,-,N/A,,Clear,0,2013-08-16 17:53:00
1:53 PM,91.0,66.9,45,29.96,10.0,Variable,6.9,-,N/A,,Scattered Clouds,0,2013-08-16 18:53:00
2:53 PM,88.0,66.9,49,29.94,10.0,North,5.8,-,N/A,,Mostly Cloudy,350,2013-08-16 19:53:00
3:53 PM,90.0,66.9,46,29.92,10.0,NNW,4.6,-,N/A,,Partly Cloudy,330,2013-08-16 20:53:00
4:53 PM,89.1,66.0,46,29.92,10.0,North,3.5,-,N/A,,Partly Cloudy,350,2013-08-16 21:53:00
5:00 PM,87.8,66.2,49,29.94,10.0,NNW,4.6,-,N/A,Thunderstorm,Scattered Clouds,330,2013-08-16 22:00:00
5:15 PM,87.8,66.2,49,29.94,10.0,NNW,3.5,-,N/A,,Scattered Clouds,340,2013-08-16 22:15:00
5:53 PM,84.9,70.0,61,29.93,9.0,NNW,8.1,-,0.00,Rain,Light Rain,340,2013-08-16 22:53:00
6:53 PM,84.0,71.1,65,29.93,10.0,Calm,Calm,-,0.00,,Clear,0,2013-08-16 23:53:00
7:19 PM,84.2,69.8,62,29.94,10.0,NNW,4.6,-,N/A,,Partly Cloudy,340,2013-08-17 00:19:00
7:53 PM,82.9,63.0,51,29.93,10.0,NNE,4.6,-,N/A,,Clear,30,2013-08-17 00:53:00
8:53 PM,81.0,62.1,52,29.96,10.0,NE,5.8,-,N/A,,Clear,50,2013-08-17 01:53:00
9:53 PM,79.0,63.0,58,29.99,10.0,NE,5.8,-,N/A,,Scattered Clouds,50,2013-08-17 02:53:00
10:53 PM,78.1,62.1,58,30.01,10.0,NE,4.6,-,N/A,,Partly Cloudy,50,2013-08-17 03:53:00
11:53 PM,75.9,62.1,62,30.02,10.0,NE,5.8,-,N/A,,Partly Cloudy,40,2013-08-17 04:53:00